Weather in Qingdao

China     36°09′00″N   120°28′17″E
temp.,
°C
wind,
m/s
gust,
m/s
humid.,
%
clouds,
%
prec.,
mm/h
press.,
hPa
HPBL,
m
23 january, sat
sat2323:000n2370100 0.0 1023221
02:000nnw2371100 0.0 1023238
05:00−1n2375100 0.0 1022247
08:00−1nnw2374100 0.0 1023234
11:00+3n2356100 0.0 1024379
14:00+6n124286 0.0 1023588
17:00+5n13410 0.0 1023197
20:00+3n12510 0.0 102549
24 january, sun
sun2423:00+1n01590 0.0 102622
02:00+1ene12660 0.0 102634
05:000e117976 0.0 102529
08:00+1s007888 0.0 102726
11:00+4e1158100 0.0 1027350
14:00+6w1149100 0.0 1026520
17:00+5ne125862 0.0 1026189
20:00+3sse117181 0.0 102841
25 january, mon
mon2523:00+3ese1285100 0.0 102850
02:00+2se119596 0.0 102833
05:00+3ese2293100 0.0 102632
08:00+4ese1289100 0.0 102729
11:00+5ese1188100 0.1 102636
14:00+6se1394100 1.1 1024117
17:00+6s1198100 2.3 102424
20:00+5wsw1199100 5.6 102424
26 january, tue
tue2623:00+5nnw1299100 2.0 102485
02:00+4nnw3596100 3.1 1024295
05:00+3nnw4987100 0.2 1024561
08:00+1n497689 0.2 1026496
11:00+4n49400 0.0 1027851
14:00+7n47281 0.0 1026946
17:00+5ne343445 0.0 1026709
20:00+3ene114243 0.0 102744
27 january, wed
wed2723:00+2ese1145100 0.0 102728
02:00+2ssw114887 0.0 102723
05:00+1e1153100 0.0 102629
08:00+1se0053100 0.0 102727
11:00+5sse0039100 0.0 1028344
14:00+7w013199 0.0 1025602
17:00+5sw0140100 0.0 1025374
20:00+3ese0145100 0.0 102737